• In Deutschland
  • Länderverzeichnis
  • Für 7 Tage
  • Wassertemperatur
  • Satellitenkarten
  • Wetterkarte
  • Widgets
  • user-avatar
    Anmelden

    Stündliche Wetter Vaterstetten

    Heute, 12 Dezember, Dienstag

    Zeit Temperatur Niederschläge Wind Luftdruck Luftfeuchtigkeit
    00:00 +2°C° 0,8 mm 3 m/S 696 mmHg 92%
    01:00 +2°C° 0 mm 3 m/S 697 mmHg 92%
    02:00 +2°C° 1,4 mm 3 m/S 698 mmHg 92%
    03:00 +2°C° 1,4 mm 3 m/S 698 mmHg 91%
    04:00 +2°C° 1,4 mm 3 m/S 699 mmHg 91%
    05:00 +1°C° 0,6 mm 3 m/S 700 mmHg 91%
    06:00 +1°C° 0,6 mm 3 m/S 701 mmHg 90%
    07:00 +1°C° 0 mm 3 m/S 702 mmHg 91%
    08:00 +1°C° 0,3 mm 3 m/S 704 mmHg 90%
    09:00 0°C° 0,3 mm 4 m/S 705 mmHg 88%
    10:00 0°C° 0,3 mm 4 m/S 706 mmHg 87%
    11:00 0°C° 0,3 mm 4 m/S 707 mmHg 87%
    12:00 +1°C° 0,3 mm 3 m/S 708 mmHg 86%
    13:00 +1°C° 0 mm 3 m/S 708 mmHg 86%
    14:00 0°C° 0,2 mm 3 m/S 709 mmHg 87%
    15:00 0°C° 0,2 mm 3 m/S 709 mmHg 89%
    16:00 +1°C° 0,2 mm 2 m/S 710 mmHg 90%
    17:00 -1°C° 0,2 mm 2 m/S 711 mmHg 90%
    18:00 -1°C° 0,2 mm 2 m/S 711 mmHg 90%
    19:00 -2°C° 0,2 mm 2 m/S 712 mmHg 91%
    20:00 -2°C° 0,1 mm 2 m/S 713 mmHg 91%
    21:00 -2°C° 0,1 mm 2 m/S 713 mmHg 91%
    22:00 -2°C° 0,1 mm 2 m/S 714 mmHg 91%
    23:00 -2°C° 0 mm 2 m/S 714 mmHg 91%

    Morgen, 13 Dezember, Mittwoch

    Zeit Temperatur Niederschläge Wind Luftdruck Luftfeuchtigkeit
    00:00 -3°C° 0 mm 2 m/S 714 mmHg 91%
    01:00 -3°C° 0 mm 2 m/S 714 mmHg 91%
    02:00 -3°C° 0 mm 2 m/S 715 mmHg 91%
    03:00 -4°C° 0 mm 2 m/S 715 mmHg 90%
    04:00 -5°C° 0 mm 2 m/S 715 mmHg 90%
    05:00 -5°C° 0 mm 2 m/S 715 mmHg 89%
    06:00 -5°C° 0 mm 2 m/S 715 mmHg 88%
    07:00 -5°C° 0 mm 2 m/S 715 mmHg 87%
    08:00 -4°C° 0 mm 2 m/S 715 mmHg 84%
    09:00 -4°C° 0 mm 2 m/S 715 mmHg 80%
    10:00 -4°C° 0 mm 3 m/S 715 mmHg 77%
    11:00 -1°C° 0 mm 2 m/S 714 mmHg 75%
    12:00 +1°C° 0 mm 2 m/S 713 mmHg 73%
    13:00 +2°C° 0 mm 2 m/S 712 mmHg 71%
    14:00 +1°C° 0 mm 2 m/S 711 mmHg 74%
    15:00 +1°C° 0 mm 2 m/S 711 mmHg 78%
    16:00 -1°C° 0 mm 2 m/S 710 mmHg 81%
    17:00 -1°C° 0 mm 2 m/S 709 mmHg 81%
    18:00 -2°C° 0 mm 2 m/S 709 mmHg 80%
    19:00 -2°C° 0 mm 2 m/S 708 mmHg 79%
    20:00 -1°C° 0,1 mm 3 m/S 708 mmHg 78%
    21:00 -1°C° 0,1 mm 3 m/S 707 mmHg 77%
    22:00 0°C° 0,1 mm 3 m/S 706 mmHg 76%
    23:00 0°C° 0,5 mm 3 m/S 706 mmHg 76%

    übermorgen, 14 Dezember, Donnerstag

    Zeit Temperatur Niederschläge Wind Luftdruck Luftfeuchtigkeit
    00:00 0°C° 0,5 mm 3 m/S 705 mmHg 76%
    01:00 0°C° 0,5 mm 3 m/S 704 mmHg 76%
    02:00 0°C° 0,1 mm 4 m/S 704 mmHg 76%
    03:00 +1°C° 0,1 mm 4 m/S 703 mmHg 75%
    04:00 +1°C° 0,1 mm 5 m/S 703 mmHg 75%
    05:00 +1°C° 0,6 mm 6 m/S 704 mmHg 78%
    06:00 +1°C° 0,6 mm 6 m/S 704 mmHg 80%
    07:00 +2°C° 0,6 mm 7 m/S 705 mmHg 82%
    08:00 +1°C° 0,4 mm 6 m/S 706 mmHg 82%
    09:00 +1°C° 0,4 mm 6 m/S 706 mmHg 81%
    10:00 0°C° 0,4 mm 5 m/S 707 mmHg 81%
    11:00 0°C° 0,2 mm 5 m/S 707 mmHg 82%
    12:00 0°C° 0,2 mm 4 m/S 707 mmHg 83%
    13:00 0°C° 0,2 mm 4 m/S 706 mmHg 84%
    14:00 +1°C° 0,1 mm 3 m/S 706 mmHg 86%
    15:00 +1°C° 0,1 mm 3 m/S 705 mmHg 89%
    16:00 +1°C° 0,1 mm 3 m/S 705 mmHg 91%
    17:00 +1°C° 0,3 mm 2 m/S 704 mmHg 91%
    18:00 +1°C° 0,3 mm 2 m/S 704 mmHg 90%
    19:00 +1°C° 0,3 mm 2 m/S 703 mmHg 89%
    20:00 0°C° 0,1 mm 3 m/S 702 mmHg 87%
    21:00 0°C° 0,1 mm 3 m/S 701 mmHg 84%
    22:00 -2°C° 0,1 mm 4 m/S 700 mmHg 81%
    23:00 -1°C° 0,1 mm 4 m/S 700 mmHg 79%

    15 Dezember, Freitag

    Zeit Temperatur Niederschläge Wind Luftdruck Luftfeuchtigkeit
    00:00 -1°C° 0,1 mm 4 m/S 699 mmHg 77%
    01:00 -1°C° 0,1 mm 4 m/S 699 mmHg 75%
    02:00 0°C° 0,7 mm 4 m/S 699 mmHg 78%
    03:00 0°C° 0,7 mm 5 m/S 700 mmHg 81%
    04:00 -1°C° 0,7 mm 6 m/S 701 mmHg 84%
    05:00 -1°C° 0,1 mm 5 m/S 701 mmHg 84%
    06:00 -1°C° 0,1 mm 4 m/S 702 mmHg 85%
    07:00 -1°C° 0,1 mm 4 m/S 702 mmHg 86%
    08:00 -1°C° 0 mm 4 m/S 702 mmHg 86%
    09:00 0°C° 0 mm 3 m/S 702 mmHg 86%
    10:00 0°C° 0 mm 3 m/S 702 mmHg 86%
    11:00 0°C° 0 mm 3 m/S 702 mmHg 85%
    12:00 +1°C° 0 mm 3 m/S 702 mmHg 84%
    13:00 +2°C° 0 mm 3 m/S 702 mmHg 82%
    14:00 +1°C° 0 mm 3 m/S 702 mmHg 84%
    15:00 +1°C° 0 mm 2 m/S 702 mmHg 85%
    16:00 +1°C° 0 mm 2 m/S 702 mmHg 86%
    17:00 -1°C° 0 mm 2 m/S 702 mmHg 86%
    18:00 -2°C° 0 mm 2 m/S 702 mmHg 86%
    19:00 -2°C° 0 mm 2 m/S 703 mmHg 86%
    20:00 -2°C° 0,2 mm 3 m/S 703 mmHg 85%
    21:00 -2°C° 0,2 mm 3 m/S 703 mmHg 84%
    22:00 -2°C° 0,2 mm 3 m/S 704 mmHg 84%
    23:00 -2°C° 0,3 mm 4 m/S 704 mmHg 84%

    16 Dezember, Samstag

    Zeit Temperatur Niederschläge Wind Luftdruck Luftfeuchtigkeit
    00:00 -2°C° 0,3 mm 4 m/S 705 mmHg 85%
    01:00 -2°C° 0,3 mm 5 m/S 706 mmHg 85%
    02:00 -2°C° 0,1 mm 5 m/S 706 mmHg 86%
    03:00 -3°C° 0,1 mm 4 m/S 706 mmHg 88%
    04:00 -3°C° 0,1 mm 4 m/S 707 mmHg 89%
    05:00 -4°C° 0 mm 3 m/S 708 mmHg 90%
    06:00 -4°C° 0 mm 3 m/S 708 mmHg 91%
    07:00 -5°C° 0 mm 3 m/S 709 mmHg 92%
    08:00 -4°C° 0 mm 3 m/S 709 mmHg 90%
    09:00 -2°C° 0 mm 3 m/S 710 mmHg 88%
    10:00 -2°C° 0 mm 4 m/S 710 mmHg 86%
    11:00 -2°C° 0 mm 4 m/S 710 mmHg 84%
    12:00 -1°C° 0 mm 4 m/S 710 mmHg 81%
    13:00 0°C° 0 mm 4 m/S 710 mmHg 79%
    14:00 0°C° 0 mm 3 m/S 710 mmHg 82%
    15:00 -1°C° 0 mm 3 m/S 710 mmHg 84%
    16:00 -1°C° 0 mm 2 m/S 711 mmHg 86%
    17:00 -2°C° 0 mm 3 m/S 711 mmHg 87%
    18:00 -2°C° 0 mm 3 m/S 712 mmHg 87%
    19:00 -4°C° 0 mm 3 m/S 712 mmHg 87%
    20:00 -4°C° 0,2 mm 3 m/S 713 mmHg 88%
    21:00 -4°C° 0,2 mm 3 m/S 713 mmHg 88%
    22:00 -2°C° 0,2 mm 3 m/S 714 mmHg 88%
    23:00 -2°C° 0,3 mm 3 m/S 714 mmHg 89%

    17 Dezember, Sonntag

    Zeit Temperatur Niederschläge Wind Luftdruck Luftfeuchtigkeit
    00:00 -2°C° 0,3 mm 3 m/S 714 mmHg 90%
    01:00 -2°C° 0,3 mm 2 m/S 715 mmHg 91%
    02:00 -3°C° 0,3 mm 2 m/S 715 mmHg 92%
    03:00 -3°C° 0,3 mm 2 m/S 715 mmHg 93%
    04:00 -3°C° 0,3 mm 2 m/S 715 mmHg 93%
    05:00 -4°C° 0,2 mm 3 m/S 716 mmHg 93%
    06:00 -4°C° 0,2 mm 3 m/S 716 mmHg 93%
    07:00 -4°C° 0,2 mm 3 m/S 717 mmHg 94%
    08:00 -4°C° 0,2 mm 3 m/S 717 mmHg 93%
    09:00 -2°C° 0,2 mm 3 m/S 718 mmHg 92%
    10:00 -2°C° 0,2 mm 3 m/S 718 mmHg 91%
    11:00 -2°C° 0,2 mm 3 m/S 718 mmHg 90%
    12:00 -2°C° 0,2 mm 4 m/S 718 mmHg 89%
    13:00 -2°C° 0,2 mm 4 m/S 718 mmHg 88%
    14:00 -1°C° 0,1 mm 3 m/S 719 mmHg 89%
    15:00 -2°C° 0,1 mm 3 m/S 719 mmHg 90%
    16:00 -2°C° 0,1 mm 3 m/S 720 mmHg 91%
    17:00 -2°C° 0,1 mm 3 m/S 720 mmHg 92%
    18:00 -4°C° 0,1 mm 3 m/S 721 mmHg 92%
    19:00 -4°C° 0,1 mm 3 m/S 721 mmHg 93%
    20:00 -3°C° 0,1 mm 2 m/S 722 mmHg 93%
    21:00 -3°C° 0,1 mm 2 m/S 722 mmHg 94%
    22:00 -4°C° 0,1 mm 2 m/S 722 mmHg 94%
    23:00 -4°C° 0 mm 2 m/S 723 mmHg 93%
    Mehr zeigen